NOAA 17 DEB, 48755

Orbit data source: Space-Track

NOAA 17 DEB, 48755 is space debris in SSO originally from a launch on Mon, 24 Jun 2002 UTC launched from the Air Force Western Test Range (AFWTR). Debris objects in space refer to the collection of defunct objects orbiting the Earth. Examples of debris include non-operational satellites, rocket bodies, and fragments generated from explosions, collisions, or faulty payload assembly.

Loading next visibility...
Identifier
48755, 2002-032CQ
Orbit
SSO
Last TLE update
23 hours ago
Origin
Manufacturer
Unknown
Mission
Spacecraft
Bus & Motor
Unknown
Mass
Unknown
Launch date (UTC)
2002-06-24 (23 years ago)
Launch vehicle
Unknown
Launch site
Air Force Western Test Range (AFWTR)
Object type
Payload
Rocket body
Debris
Shape & HBR
Unknown
Radar Cross Section
Small (<0.1 m²)

Expand to show TLE details & history

TLE from 23 hours ago
0 NOAA 17 DEB
1 48755U 02032CQ  25198.25481917  .00016806  00000-0  23297-2 0  9994
2 48755  98.7160 206.6559 0015381 260.7927  99.1542 14.77964311227077
Epoch: 2025-07-17T06:06Z
TLE epoch observation values (Epoch: 2025-07-17T06:06:56.376Z)
Latitude
0.00003°
Longitude
179.59773°
Altitude
640.483 km
Speed
7.537 km/s
True Right ascension
13h 46m 37s
True Declination
0° 00' 00"
Sunlit
Object was in daylight at epoch
Visualization orbit readout
Latitude
37.11809°
Longitude
174.00362°
Altitude
648.999 km
Speed
7.532 km/s
Apparent Right ascension
09h 59m 21s
Apparent Declination
1° 29' 18"
Sunlit
Object is in daylight
Visualization observer readout
Local Sidereal Time
17:46:30
Azimuth
289.099° WNW
Elevation
-19.2°
Doppler factor
1
Orbital elements
Apogee altitude
643.623 km
Perigee altitude
622.056 km
Semi-major axis
7,010.976 km
Eccentricity
0.00154
Inclination
98.716°
RAAN
206.6559°
Arg. of periapsis
260.7927°
True anomaly
99.32815°
Mean anomaly
99.1542°
Eccentric anomaly
99.24118°
Mean motion
3.69722 °/min
Orbital period
97.37 mins
BSTAR
0.0023297
Loading maneuver chart data...
Loading SW <> Apogee altitude chart data...
Loading historical data...
Loading historical data...
Loading historical data...
Loading historical data...
Loading historical data...
Loading historical data...
Loading historical data...
|